Location: Sauerland
(51.1981°N, 7.8053°E)
Time: 18:47:55
(UTC+01:00)

ISS - Pass Details

Date: 26 February 2026
Orbit: 416 x 427 km, 51.6° (Epoch: 6 March)

Event Time Altitude Azimuth Distance (km) Brightness Sun altitude
Exits shadow 05:07:05 66° 79° (E) 458 -3.5 -21.5°
Drops below altitude 10° 05:10:03 10° 94° (E) 1,494 0.1 -21.1°
Sets 05:12:08 0° 95° (E) 2,355 1.4 -20.7°
